Terminal Aerodrome Forecast
Issued by NWS Portland, OR

Home | Current Version | Previous Version | Text Only | Print | Product List | Glossary On
Versions: 1 2 3 4 5 6 7 8 9 10 11 12 13 14 15 16 17 18 19 20 21 22 23 24 25 26 27 28 29 30 31 32 33 34 35 36 37 38 39 40 41 42 43 44 45 46
000
FTUS46 KPQR 201731
TAFEUG
TAF
KEUG 201731Z 2018/2118 17007KT P6SM SCT025 BKN650
      TEMPO 2018/2020 -SHRA BKN025 OVC040
     FM202000 18008KT P6SM -SHRA BKN035 BKN060=

USA.gov is the U.S. government's official web portal to all federal, state and local government web resources and services.